Weather History for KWWD - November, 2012

Change the Weather History Date:

Monday, November 12, 2012

  Actual Average Record
Temperature  
Mean Temperature 58 °F -  
Max Temperature 66 °F 53 °F 66 °F (2012)
Min Temperature 51 °F 39 °F 26 °F (2001)
Degree Days  
Heating Degree Days 6    
Growing Degree Days 8 (Base 50)    
Moisture  
Dew Point 53 °F    
Average Humidity 82    
Maximum Humidity 94    
Minimum Humidity 68    
Precipitation  
Precipitation 0.00 in - - ()
Sea Level Pressure  
Sea Level Pressure 30.43 in    
Wind  
Wind Speed 10 mph (SSE)    
Max Wind Speed 20 mph    
Max Gust Speed 24 mph    
Visibility 9 miles    
Events      
Averages and records for this station are not official NWS values.
T = Trace of Precipitation, MM = Missing Value Source: NWS Daily Summary

Daily Weather History Graph

Daily Weather History Graph

Search for Another Location

Airport or City:

Trip Planner

Search our weather history database for the weather conditions in past years. The results will help you decide how hot, cold, wet, or windy it might be!

Date:

Astronomy

Nov. 12, 2012 Rise Set
Actual Time 6:39 AM EST 4:47 PM EST
Civil Twilight 6:11 AM EST 5:15 PM EST
Nautical Twilight 5:39 AM EST 5:48 PM EST
Astronomical Twilight 5:07 AM EST 6:19 PM EST
Moon 5:02 AM EST (11/12) 3:50 PM EST (11/12)
Length of Visible Light 11h 04m
Length of Day
10h 07m
Waning Crescent, 2% of the Moon is Illuminated
Nov 12
Waning Crescent
Nov 13
New
Nov 20
First Quarter
Nov 28
Full
Dec 6
Last Quarter

Hourly Weather History & Observations

Time (EST) Temp. Dew Point Humidity Pressure Visibility Wind Dir Wind Speed Gust Speed Precip Events Conditions
12:15 AM 53.6 °F 50.0 °F 88% 30.44 in 10.0 mi South 8.1 mph - N/A   Clear
12:35 AM 53.6 °F 50.0 °F 88% 30.43 in 9.0 mi South 10.4 mph - N/A   Clear
12:55 AM 53.6 °F 50.0 °F 88% 30.44 in 7.0 mi SSE 8.1 mph - N/A   Clear
1:15 AM 53.6 °F 50.0 °F 88% 30.44 in 5.0 mi South 6.9 mph - N/A   Clear
2:15 AM 53.6 °F 50.0 °F 88% 30.43 in 8.0 mi SSE 5.8 mph - N/A   Clear
2:35 AM 51.8 °F 48.2 °F 88% 30.43 in 8.0 mi South 5.8 mph - N/A   Clear
2:55 AM 51.8 °F 48.2 °F 88% 30.43 in 7.0 mi SSE 6.9 mph - N/A   Clear
3:15 AM 51.8 °F 48.2 °F 88% 30.42 in 6.0 mi SSE 6.9 mph - N/A   Clear
3:35 AM 51.8 °F 48.2 °F 88% 30.42 in 5.0 mi SSE 5.8 mph - N/A   Clear
3:55 AM 51.8 °F 48.2 °F 88% 30.42 in 5.0 mi SSE 4.6 mph - N/A   Clear
4:15 AM 51.8 °F 48.2 °F 88% 30.42 in 5.0 mi SSE 4.6 mph - N/A   Clear
4:35 AM 51.8 °F 48.2 °F 88% 30.42 in 5.0 mi South 5.8 mph - N/A   Clear
4:55 AM 51.8 °F 48.2 °F 88% 30.42 in 5.0 mi SSE 5.8 mph - N/A   Clear
5:15 AM 51.8 °F 48.2 °F 88% 30.42 in 5.0 mi South 4.6 mph - N/A   Clear
5:35 AM 51.8 °F 48.2 °F 88% 30.42 in 5.0 mi South 5.8 mph - N/A   Clear
5:55 AM 51.8 °F 48.2 °F 88% 30.42 in 5.0 mi SSE 5.8 mph - N/A   Clear
6:15 AM 51.8 °F 48.2 °F 88% 30.42 in 5.0 mi South 5.8 mph - N/A   Clear
6:35 AM 51.8 °F 48.2 °F 88% 30.43 in 5.0 mi South 5.8 mph - N/A   Clear
6:55 AM 51.8 °F 48.2 °F 88% 30.43 in 4.0 mi South 5.8 mph - N/A   Clear
7:15 AM 51.8 °F 48.2 °F 88% 30.43 in 4.0 mi South 6.9 mph - N/A   Clear
7:55 AM 55.4 °F 53.6 °F 94% 30.42 in 6.0 mi SSE 9.2 mph - N/A   Clear
8:15 AM 57.2 °F 55.4 °F 94% 30.41 in 8.0 mi SSE 10.4 mph - N/A   Clear
8:35 AM 59.0 °F 55.4 °F 88% - 10.0 mi South 11.5 mph - N/A   Clear
8:55 AM 60.8 °F 55.4 °F 82% - 10.0 mi SSE 11.5 mph - N/A   Clear
9:15 AM 62.6 °F 55.4 °F 77% - 10.0 mi SSE 11.5 mph - N/A   Clear
9:35 AM 62.6 °F 55.4 °F 77% - 10.0 mi SSE 11.5 mph - N/A   Clear
9:55 AM 64.4 °F 55.4 °F 73% - 10.0 mi SSE 10.4 mph - N/A   Clear
10:15 AM 64.4 °F 55.4 °F 73% - 10.0 mi South 11.5 mph - N/A   Clear
10:55 AM 66.2 °F 55.4 °F 68% - 10.0 mi SSE 13.8 mph 19.6 mph N/A   Clear
11:15 AM 66.2 °F 55.4 °F 68% - 10.0 mi South 16.1 mph - N/A   Clear
11:35 AM 66.2 °F 55.4 °F 68% - 10.0 mi SSE 15.0 mph 20.7 mph N/A   Clear
11:55 AM 66.2 °F 55.4 °F 68% - 10.0 mi SSE 17.3 mph - N/A   Clear
12:15 PM 66.2 °F 55.4 °F 68% - 10.0 mi South 15.0 mph 20.7 mph N/A   Clear
12:35 PM 66.2 °F 55.4 °F 68% - 10.0 mi South 15.0 mph 23.0 mph N/A   Clear
12:55 PM 66.2 °F 55.4 °F 68% - 10.0 mi South 17.3 mph - N/A   Clear
1:15 PM 66.2 °F 55.4 °F 68% - 10.0 mi SSE 16.1 mph 20.7 mph N/A   Clear
1:35 PM 66.2 °F 55.4 °F 68% - 10.0 mi South 15.0 mph - N/A   Clear
1:55 PM 66.2 °F 55.4 °F 68% - 10.0 mi South 15.0 mph 19.6 mph N/A   Clear
2:15 PM 66.2 °F 55.4 °F 68% - 10.0 mi South 16.1 mph 23.0 mph N/A   Clear
2:35 PM 66.2 °F 55.4 °F 68% - 10.0 mi South 15.0 mph - N/A   Clear
2:55 PM 64.4 °F 55.4 °F 73% - 10.0 mi South 13.8 mph 18.4 mph N/A   Clear
3:15 PM 64.4 °F 55.4 °F 73% - 10.0 mi South 13.8 mph 19.6 mph N/A   Clear
3:35 PM 62.6 °F 55.4 °F 77% - 10.0 mi SSE 13.8 mph - N/A   Clear
3:55 PM 62.6 °F 53.6 °F 72% - 10.0 mi SSE 12.7 mph - N/A   Clear
4:15 PM 60.8 °F 53.6 °F 77% - 10.0 mi SSE 13.8 mph 19.6 mph N/A   Clear
4:35 PM 60.8 °F 53.6 °F 77% - 10.0 mi SSE 16.1 mph 20.7 mph N/A   Clear
4:55 PM 60.8 °F 53.6 °F 77% - 10.0 mi SSE 16.1 mph 21.9 mph N/A   Partly Cloudy
5:35 PM 60.8 °F 55.4 °F 82% - 10.0 mi SSE 15.0 mph 21.9 mph N/A   Overcast
5:55 PM 60.8 °F 55.4 °F 82% - 10.0 mi SSE 15.0 mph 19.6 mph N/A   Overcast
6:15 PM 60.8 °F 55.4 °F 82% - 10.0 mi SSE 13.8 mph - N/A   Overcast
6:35 PM 60.8 °F 55.4 °F 82% - 10.0 mi SSE 17.3 mph 23.0 mph N/A   Mostly Cloudy
6:55 PM 60.8 °F 55.4 °F 82% - 10.0 mi SSE 17.3 mph 21.9 mph N/A   Overcast
7:15 PM 60.8 °F 55.4 °F 82% - 10.0 mi South 17.3 mph 21.9 mph N/A   Overcast
7:35 PM 60.8 °F 57.2 °F 88% - 10.0 mi SSE 19.6 mph 24.2 mph N/A   Overcast
7:55 PM 60.8 °F 57.2 °F 88% - 10.0 mi South 11.5 mph 20.7 mph N/A   Overcast
8:15 PM 60.8 °F 57.2 °F 88% - 10.0 mi South 10.4 mph 18.4 mph N/A   Overcast
8:35 PM 60.8 °F 55.4 °F 82% - 10.0 mi South 10.4 mph 16.1 mph N/A   Scattered Clouds
8:55 PM 57.2 °F 55.4 °F 94% - 10.0 mi South 11.5 mph - N/A   Clear
9:15 PM 57.2 °F 55.4 °F 94% - 10.0 mi South 10.4 mph - N/A   Clear
9:35 PM 57.2 °F 55.4 °F 94% - 10.0 mi South 12.7 mph - N/A   Clear
9:55 PM 57.2 °F 55.4 °F 94% - 10.0 mi South 11.5 mph - N/A   Clear
10:15 PM 57.2 °F 55.4 °F 94% - 10.0 mi South 12.7 mph - N/A   Clear
10:35 PM 59.0 °F 55.4 °F 88% - 10.0 mi South 15.0 mph - N/A   Clear
10:55 PM 59.0 °F 55.4 °F 88% - 10.0 mi SSE 17.3 mph 21.9 mph N/A   Clear
11:15 PM 59.0 °F 55.4 °F 88% - 10.0 mi South 12.7 mph - N/A   Clear
11:35 PM 59.0 °F 55.4 °F 88% - 10.0 mi South 12.7 mph 17.3 mph N/A   Mostly Cloudy
11:55 PM 59.0 °F 55.4 °F 88% - 10.0 mi South 11.5 mph - N/A   Mostly Cloudy